Location: Moscow
(38.3171°N, 79.0889°W)
Time: 01:58:05
(UTC+00:00)

Cosmos 2084 Rocket - Pass Details

Date: 07 November 2025
Orbit: 549 x 566 km, 62.8° (Epoch: 08 December)

Event Time Altitude Azimuth Distance (km) Brightness Sun altitude
Rises 23:21:44 0° 188° (S) 2,718 7.1 -14.3°
Reaches altitude 10° 23:24:07 10° 177° (S) 1,832 6.1 -14.8°
Maximum altitude 23:27:43 30° 116° (ESE) 1,022 4.2 -15.5°
Enters shadow 23:28:26 28° 97° (E) 1,066 4.2 -15.6°
